Uirapuru, Brazil
Current Conditions -  °F | °C
As of 3:00 AM on Friday 31 Oct 2014 (Local Time) from SBAN Reporting Station
Thunderstorm Thunderstorm  
Wind Chill: 64°   Ceiling: 2000
Heat Index: 64°   Visibility: 6mi
Dew Point: 63°   Wind: 8mph
Humidity: 94%   Direction: 70°ENE
Pressure: 30.09"   Gusts: NA
Location:  14.29°S, 49.92°W
Report Text: SBAN 310500Z 07007KT 9999 -TSRA BKN020 FEW035CB 18/17 Q1019
Loading
Personal Weather Stations






























Interactive Weather Map
Tropical Storm Tracking
New forecast layout! Learn more

10-Day Weather Forecast

Advertisements
Track Severe Weather on mobile